When you browse on this site, cookies collect data to enhance your experience and personalize the content and advertising you see.
Visit our Privacy Policy to learn more. By continuing to use the site, you agree to this use of cookies and data.
  • In Hungary
  • List of Countries
  • For 7 days
  • Water Temperature
  • Weather Map
  • News
  • Weather Widgets
  • user-avatar
    Login

    Hourly Weather Iskra

    Today, 13 October, Sunday

    Time Temperature Precipitation Wind Pressure Humidity
    00:00 +7°C° 0 mm 1 mps 746 mmHg 96%
    01:00 +6°C° 0 mm 2 mps 746 mmHg 95%
    02:00 +6°C° 0 mm 2 mps 745 mmHg 96%
    03:00 +6°C° 0 mm 2 mps 745 mmHg 96%
    04:00 +7°C° 0 mm 1 mps 745 mmHg 95%
    05:00 +7°C° 0 mm 1 mps 745 mmHg 95%
    06:00 +6°C° 0 mm 2 mps 744 mmHg 95%
    07:00 +6°C° 0 mm 2 mps 744 mmHg 95%
    08:00 +7°C° 0 mm 3 mps 743 mmHg 91%
    09:00 +6°C° 0 mm 4 mps 743 mmHg 88%
    10:00 +7°C° 0 mm 5 mps 742 mmHg 84%
    11:00 +7°C° 0 mm 5 mps 742 mmHg 81%
    12:00 +8°C° 0 mm 6 mps 741 mmHg 78%
    13:00 +9°C° 0 mm 6 mps 740 mmHg 75%
    14:00 +8°C° 0.6 mm 6 mps 740 mmHg 78%
    15:00 +8°C° 0.6 mm 6 mps 739 mmHg 82%
    16:00 +6°C° 0 mm 7 mps 739 mmHg 85%
    17:00 +6°C° 2.3 mm 7 mps 738 mmHg 87%
    18:00 +6°C° 2.3 mm 7 mps 737 mmHg 89%
    19:00 +6°C° 2.3 mm 7 mps 737 mmHg 91%
    20:00 +7°C° 0.8 mm 6 mps 737 mmHg 91%
    21:00 +7°C° 0.8 mm 5 mps 736 mmHg 90%
    22:00 +7°C° 0.8 mm 4 mps 736 mmHg 90%
    23:00 +7°C° 0.3 mm 4 mps 736 mmHg 89%

    Tomorrow, 14 October, Monday

    Time Temperature Precipitation Wind Pressure Humidity
    00:00 +7°C° 0.3 mm 4 mps 736 mmHg 89%
    01:00 +7°C° 0.3 mm 4 mps 736 mmHg 88%
    02:00 +6°C° 0.1 mm 4 mps 736 mmHg 87%
    03:00 +6°C° 0.1 mm 4 mps 736 mmHg 87%
    04:00 +6°C° 0.1 mm 4 mps 736 mmHg 86%
    05:00 +6°C° 0.1 mm 5 mps 736 mmHg 88%
    06:00 +6°C° 0.1 mm 5 mps 736 mmHg 89%
    07:00 +5°C° 0.1 mm 5 mps 736 mmHg 90%
    08:00 +6°C° 0.2 mm 5 mps 736 mmHg 88%
    09:00 +6°C° 0.2 mm 5 mps 737 mmHg 86%
    10:00 +6°C° 0.2 mm 5 mps 737 mmHg 84%
    11:00 +6°C° 0.2 mm 5 mps 737 mmHg 82%
    12:00 +7°C° 0.2 mm 5 mps 738 mmHg 80%
    13:00 +7°C° 0.2 mm 5 mps 738 mmHg 78%
    14:00 +7°C° 0.2 mm 5 mps 739 mmHg 78%
    15:00 +7°C° 0.2 mm 5 mps 739 mmHg 78%
    16:00 +7°C° 0.2 mm 5 mps 740 mmHg 77%
    17:00 +7°C° 0.1 mm 5 mps 740 mmHg 78%
    18:00 +6°C° 0.1 mm 5 mps 740 mmHg 79%
    19:00 +6°C° 0.1 mm 5 mps 741 mmHg 80%
    20:00 +6°C° 0.3 mm 5 mps 741 mmHg 83%
    21:00 +6°C° 0.3 mm 5 mps 741 mmHg 86%
    22:00 +5°C° 0.3 mm 5 mps 741 mmHg 89%
    23:00 +5°C° 0.2 mm 5 mps 741 mmHg 89%

    Day after tomorrow, 15 October, Tuesday

    Time Temperature Precipitation Wind Pressure Humidity
    00:00 +5°C° 0.2 mm 5 mps 741 mmHg 89%
    01:00 +5°C° 0.2 mm 4 mps 741 mmHg 90%
    02:00 +5°C° 0 mm 4 mps 742 mmHg 91%
    03:00 +4°C° 0 mm 4 mps 742 mmHg 91%
    04:00 +4°C° 0 mm 3 mps 742 mmHg 92%
    05:00 +4°C° 0.1 mm 4 mps 742 mmHg 92%
    06:00 +4°C° 0.1 mm 4 mps 741 mmHg 92%
    07:00 +4°C° 0.1 mm 4 mps 741 mmHg 93%
    08:00 +4°C° 0.5 mm 4 mps 740 mmHg 92%
    09:00 +5°C° 0.5 mm 4 mps 739 mmHg 91%
    10:00 +5°C° 0.5 mm 4 mps 738 mmHg 91%
    11:00 +5°C° 1.4 mm 5 mps 736 mmHg 91%
    12:00 +6°C° 1.4 mm 5 mps 735 mmHg 92%
    13:00 +7°C° 1.4 mm 6 mps 734 mmHg 93%
    14:00 +8°C° 0.6 mm 6 mps 734 mmHg 90%
    15:00 +9°C° 0.6 mm 6 mps 733 mmHg 88%
    16:00 +10°C° 0.6 mm 6 mps 733 mmHg 85%
    17:00 +9°C° 0.1 mm 5 mps 734 mmHg 86%
    18:00 +7°C° 0.1 mm 5 mps 735 mmHg 88%
    19:00 +6°C° 0.1 mm 5 mps 735 mmHg 89%
    20:00 +5°C° 0 mm 5 mps 736 mmHg 88%
    21:00 +5°C° 0 mm 5 mps 737 mmHg 86%
    22:00 +3°C° 0 mm 5 mps 738 mmHg 85%
    23:00 +3°C° 0 mm 5 mps 739 mmHg 85%

    16 October, Wednesday

    Time Temperature Precipitation Wind Pressure Humidity
    00:00 +3°C° 0 mm 5 mps 739 mmHg 85%
    01:00 +2°C° 0 mm 5 mps 740 mmHg 85%
    02:00 +2°C° 0 mm 5 mps 741 mmHg 85%
    03:00 +2°C° 0 mm 5 mps 742 mmHg 85%
    04:00 +1°C° 0 mm 5 mps 742 mmHg 85%
    05:00 +1°C° 0 mm 4 mps 743 mmHg 87%
    06:00 0°C° 0 mm 4 mps 743 mmHg 88%
    07:00 +1°C° 0 mm 3 mps 743 mmHg 90%
    08:00 0°C° 0 mm 4 mps 744 mmHg 85%
    09:00 0°C° 0 mm 5 mps 745 mmHg 81%
    10:00 +1°C° 0 mm 5 mps 745 mmHg 77%
    11:00 +1°C° 0 mm 5 mps 745 mmHg 76%
    12:00 +1°C° 0 mm 5 mps 746 mmHg 76%
    13:00 +2°C° 0 mm 5 mps 746 mmHg 76%
    14:00 +1°C° 0.1 mm 5 mps 747 mmHg 78%
    15:00 +1°C° 0.1 mm 5 mps 747 mmHg 80%
    16:00 0°C° 0.1 mm 5 mps 747 mmHg 82%
    17:00 0°C° 0 mm 4 mps 748 mmHg 80%
    18:00 0°C° 0 mm 4 mps 748 mmHg 78%
    19:00 +1°C° 0 mm 3 mps 749 mmHg 76%
    20:00 0°C° 0 mm 3 mps 749 mmHg 78%
    21:00 0°C° 0 mm 3 mps 750 mmHg 80%
    22:00 +1°C° 0 mm 2 mps 750 mmHg 82%
    23:00 0°C° 0 mm 3 mps 750 mmHg 81%

    17 October, Thursday

    Time Temperature Precipitation Wind Pressure Humidity
    00:00 0°C° 0 mm 3 mps 750 mmHg 80%
    01:00 0°C° 0 mm 3 mps 750 mmHg 79%
    02:00 0°C° 0 mm 3 mps 751 mmHg 78%
    03:00 +1°C° 0 mm 2 mps 751 mmHg 78%
    04:00 +1°C° 0 mm 2 mps 751 mmHg 78%
    05:00 +1°C° 0 mm 2 mps 751 mmHg 79%
    06:00 +1°C° 0 mm 2 mps 751 mmHg 79%
    07:00 +1°C° 0 mm 2 mps 752 mmHg 80%
    08:00 +1°C° 0 mm 2 mps 752 mmHg 77%
    09:00 +2°C° 0 mm 2 mps 751 mmHg 75%
    10:00 +1°C° 0 mm 3 mps 751 mmHg 72%
    11:00 +1°C° 0 mm 3 mps 751 mmHg 74%
    12:00 +2°C° 0 mm 3 mps 751 mmHg 75%
    13:00 +2°C° 0 mm 3 mps 751 mmHg 77%
    14:00 +2°C° 0 mm 3 mps 751 mmHg 82%
    15:00 +1°C° 0 mm 3 mps 750 mmHg 87%
    16:00 +1°C° 0 mm 3 mps 750 mmHg 92%
    17:00 0°C° 0.1 mm 4 mps 749 mmHg 93%
    18:00 0°C° 0.1 mm 4 mps 749 mmHg 94%
    19:00 0°C° 0.1 mm 4 mps 748 mmHg 95%
    20:00 0°C° 0.1 mm 4 mps 748 mmHg 93%
    21:00 +1°C° 0.1 mm 4 mps 747 mmHg 90%
    22:00 +1°C° 0.1 mm 4 mps 747 mmHg 88%
    23:00 +1°C° 0.8 mm 4 mps 746 mmHg 89%

    18 October, Friday

    Time Temperature Precipitation Wind Pressure Humidity
    00:00 +1°C° 0.8 mm 4 mps 745 mmHg 91%
    01:00 +1°C° 0.8 mm 5 mps 744 mmHg 92%
    02:00 +1°C° 1.6 mm 5 mps 744 mmHg 91%
    03:00 +1°C° 1.6 mm 5 mps 743 mmHg 91%
    04:00 +1°C° 1.6 mm 4 mps 743 mmHg 90%
    05:00 +1°C° 1 mm 4 mps 742 mmHg 91%
    06:00 +1°C° 1 mm 4 mps 742 mmHg 92%
    07:00 +1°C° 1 mm 4 mps 741 mmHg 92%
    08:00 +3°C° 0.8 mm 4 mps 741 mmHg 92%
    09:00 +3°C° 0.8 mm 4 mps 741 mmHg 93%
    10:00 +3°C° 0.8 mm 4 mps 740 mmHg 93%
    11:00 +3°C° 1.2 mm 3 mps 740 mmHg 93%
    12:00 +3°C° 1.2 mm 3 mps 740 mmHg 94%
    13:00 +4°C° 1.2 mm 3 mps 740 mmHg 95%
    14:00 +4°C° 1.6 mm 3 mps 740 mmHg 95%
    15:00 +5°C° 1.6 mm 2 mps 740 mmHg 96%
    16:00 +5°C° 1.6 mm 2 mps 740 mmHg 97%
    17:00 +3°C° 0.6 mm 3 mps 740 mmHg 96%
    18:00 +3°C° 0.6 mm 4 mps 740 mmHg 96%
    19:00 +1°C° 0.6 mm 5 mps 741 mmHg 96%
    20:00 -1°C° 1.1 mm 6 mps 741 mmHg 96%
    21:00 -2°C° 1.1 mm 7 mps 741 mmHg 95%
    22:00 -2°C° 1.1 mm 8 mps 742 mmHg 95%
    23:00 -4°C° 1.2 mm 8 mps 742 mmHg 94%
    Show more